Weather History for Youngstown, OH

Change the Weather History Date:

Thursday, July 11, 2013

  Actual Average Record
Temperature  
Mean Temperature 67 °F 71 °F  
Max Temperature 76 °F 82 °F 100 °F (1936)
Min Temperature 58 °F 60 °F 43 °F (1996)
Degree Days  
Heating Degree Days 0 0  
Month to date heating degree days 0 8  
Since 1 June heating degree days 56 77  
Since 1 July heating degree days 0 8  
Cooling Degree Days 2 6  
Month to date cooling degree days 95 66  
Year to date cooling degree days 301 215  
Since 1 June cooling degree days 213 176  
Growing Degree Days 19 (Base 50)    
Moisture  
Dew Point 59 °F    
Average Humidity 75    
Maximum Humidity 100    
Minimum Humidity 50    
Precipitation  
Precipitation 0.03 in 0.14 in 3.68 in (1976)
Month to date precipitation 4.90 1.51  
Year to date precipitation 22.04 20.18  
Snow  
Snow 0.00 in 0.00 in - ()
Month to date snowfall 0.0 0.0  
Since 1 June snowfall T 0.0  
Since 1 July snowfall 0.0 0.0  
Snow Depth 0.00 in    
Sea Level Pressure  
Sea Level Pressure 29.99 in    
Wind  
Wind Speed 7 mph (North)    
Max Wind Speed 16 mph    
Max Gust Speed 21 mph    
Visibility 10 miles    
Events Rain    
T = Trace of Precipitation, MM = Missing Value Source: NWS Daily Summary

Daily Weather History Graph

Daily Weather History Graph

Search for Another Location

Airport:

Trip Planner

Search our weather history database for the weather conditions in past years. The results will help you decide how hot, cold, wet, or windy it might be!

Date:

Astronomy

Jul. 11, 2013 Rise Set
Actual Time 5:59 AM EDT 8:56 PM EDT
Civil Twilight 5:26 AM EDT 9:29 PM EDT
Nautical Twilight 4:44 AM EDT 10:11 PM EDT
Astronomical Twilight 3:56 AM EDT 10:59 PM EDT
Moon 9:19 AM EDT (7/11) 10:33 PM EDT (7/11)
Length of Visible Light 16h 02m
Length of Day
14h 56m
Waxing Crescent, 10% of the Moon is Illuminated
Jul 11
Waxing Crescent
Jul 15
First Quarter
Jul 22
Full
Jul 29
Last Quarter
Aug 6
New

Hourly Weather History & Observations

Time (EDT) Temp. Dew Point Humidity Pressure Visibility Wind Dir Wind Speed Gust Speed Precip Events Conditions
12:51 AM 66.0 °F 64.0 °F 93% 29.91 in 10.0 mi SW 4.6 mph - 0.00 in Rain Light Rain
1:51 AM 66.0 °F 64.0 °F 93% 29.91 in 10.0 mi WNW 3.5 mph - 0.03 in Rain Light Rain
2:51 AM 66.0 °F 64.0 °F 93% 29.92 in 10.0 mi West 3.5 mph - 0.00 in Rain Light Rain
3:51 AM 64.9 °F 64.0 °F 97% 29.94 in 10.0 mi Calm Calm - 0.00 in Rain Light Rain
3:58 AM 64.4 °F 64.4 °F 100% 29.95 in 10.0 mi North 3.5 mph - 0.00 in Rain Light Rain
4:51 AM 64.9 °F 61.0 °F 87% 29.95 in 10.0 mi North 5.8 mph - 0.00 in   Overcast
5:51 AM 63.0 °F 60.1 °F 90% 29.97 in 10.0 mi North 4.6 mph - N/A   Overcast
6:51 AM 64.0 °F 61.0 °F 90% 29.99 in 10.0 mi North 4.6 mph - N/A   Mostly Cloudy
7:51 AM 64.9 °F 61.0 °F 87% 30.00 in 10.0 mi North 6.9 mph - N/A   Mostly Cloudy
8:51 AM 66.9 °F 61.0 °F 81% 30.00 in 10.0 mi NNE 9.2 mph - N/A   Partly Cloudy
9:51 AM 69.1 °F 59.0 °F 70% 30.01 in 10.0 mi NNE 6.9 mph - N/A   Scattered Clouds
10:26 AM 69.8 °F 57.2 °F 64% 30.03 in 10.0 mi North 10.4 mph - N/A   Mostly Cloudy
10:51 AM 70.0 °F 57.9 °F 65% 30.02 in 10.0 mi NNE 8.1 mph - N/A   Mostly Cloudy
11:37 AM 71.6 °F 57.2 °F 60% 30.04 in 10.0 mi North 6.9 mph - N/A   Mostly Cloudy
11:51 AM 72.0 °F 59.0 °F 64% 30.02 in 10.0 mi North 5.8 mph - N/A   Mostly Cloudy
12:51 PM 72.0 °F 55.9 °F 57% 30.01 in 10.0 mi North 9.2 mph - N/A   Mostly Cloudy
1:51 PM 73.0 °F 55.9 °F 55% 30.00 in 10.0 mi NNW 9.2 mph - N/A   Mostly Cloudy
2:51 PM 73.9 °F 55.9 °F 53% 30.00 in 10.0 mi NNW 8.1 mph - N/A   Mostly Cloudy
3:51 PM 75.0 °F 55.0 °F 50% 30.00 in 10.0 mi NNW 10.4 mph - N/A   Mostly Cloudy
4:51 PM 73.9 °F 55.9 °F 53% 30.00 in 10.0 mi NNW 15.0 mph - N/A   Mostly Cloudy
5:51 PM 73.0 °F 55.0 °F 53% 30.01 in 10.0 mi NNW 12.7 mph - N/A   Scattered Clouds
6:51 PM 72.0 °F 54.0 °F 53% 30.01 in 10.0 mi NNW 11.5 mph - N/A   Scattered Clouds
7:51 PM 70.0 °F 54.0 °F 57% 30.01 in 10.0 mi North 6.9 mph - N/A   Scattered Clouds
8:51 PM 66.0 °F 55.0 °F 68% 30.02 in 10.0 mi North 5.8 mph - N/A   Scattered Clouds
9:51 PM 64.0 °F 55.9 °F 75% 30.02 in 10.0 mi North 6.9 mph - N/A   Partly Cloudy
10:51 PM 63.0 °F 55.9 °F 78% 30.01 in 10.0 mi North 8.1 mph - N/A   Clear
11:51 PM 62.1 °F 55.9 °F 80% 30.03 in 10.0 mi North 3.5 mph - N/A   Clear